Regional Weather Roundup
Issued by NWS

Home | Current Version | Previous Version | Text Only | Print | Product List | Glossary Off
Versions: 1 2 3 4 5 6 7 8 9 10 11 12 13 14 15 16 17 18 19 20 21 22 23 24 25 26 27 28 29 30 31 32 33 34 35 36 37 38 39 40 41 42 43 44 45 46 47 48 49 50

000
ASUS43 KLOT 031108
RWRIL

ILLINOIS REGIONAL WEATHER ROUNDUP
NATIONAL WEATHER SERVICE CHICAGO/ROMEOVILLE IL
600 AM CDT FRI JUL 03 2015

NOTE: "FAIR" INDICATES FEW OR NO CLOUDS BELOW 12,000 FEET WITH NO
SIGNIFICANT WEATHER AND/OR OBSTRUCTIONS TO VISIBILITY.

* THESE STATIONS ARE NOT UNDER NWS QUALITY CONTROL. THEY ALSO MAY NOT
  REPORT WEATHER SUCH AS PRECIPITATION OR FOG.

ILZ001-002-007-009-015-016-024-031200-
NORTHWEST ILLINOIS

CITY           SKY/WX    TMP DP  RH WIND       PRES   REMARKS
MOLINE         CLOUDY    59  53  80 E5        29.96S
STERLING*      MOCLDY    55  52  88 NE3       29.96S
SAVANNA*       PTCLDY    55  53  92 N5        29.98S
$$

ILZ003-004-008-010-011-017-018-031200-
NORTH CENTRAL ILLINOIS

CITY           SKY/WX    TMP DP  RH WIND       PRES   REMARKS
ROCKFORD       CLOUDY    56  48  74 N7        29.99S
FREEPORT*      MOCLDY    51  50  96 CALM      30.00S
ROCHELLE*      PTCLDY    53  51  91 NE5       29.98R
DE KALB*       MOCLDY    52  49  89 NE5       29.98S
PERU*          MOCLDY    56  52  84 NE6       29.96R
$$

ILZ005-006-012>014-019>023-031200-
NORTHEAST ILLINOIS

CITY           SKY/WX    TMP DP  RH WIND       PRES   REMARKS
CHICAGO-OHARE  CLOUDY    57  52  83 N6        29.96S
CHICAGO-MIDWAY MOCLDY    62  57  83 N3        29.96R
AURORA         MOCLDY    56  49  77 NE3       29.97R
LANSING*       MOCLDY    60  54  80 CALM      29.96R
JOLIET*        CLOUDY    59  55  87 CALM      29.96R
WAUKEGAN       MOCLDY    55  52  89 CALM      29.98S
DUPAGE AIRPORT MOCLDY    53  50  89 N5        29.96S
KANKAKEE*      CLOUDY    59  57  93 NE3       29.95R
WHEELING       CLOUDY    55  51  86 CALM      29.99R
MORRIS*        MOCLDY    57  52  85 NE3       29.93R
ROMEOVILLE*    MOCLDY    56  53  88 NE5       29.96R
NORTHERLY ISL    N/A     61  56  83 E2          N/A
$$

LMZ740>746-031200-
SOUTHERN LAKE MICHIGAN

STATION/POSITION SKY/WX   TEMP    WIND        PRES    VSBY  WAVE
                          AIR SEA DIR/SP/G                  HT/PER
                          (F)     (DEG/KT/KT) (MB)    (MI)  (FT/S)
HARRISON CRIB              61     100/  9/ 11   N/A
BURNHAM HARBOR             61      50/  3/  5   N/A
CALUMET HARBOR             62      80/  4/  6   N/A
BURNS HARBOR               63     100/  7/ 12 1014.9S
MICHIGAN CITY              60     100/  7/ 10   N/A
MICHIGAN CITY 6N           61 63   90/  6/  8   N/A           2/ 4
ST. JOSEPH                 59 61                N/A           1/ 4
$$

ILZ025>027-034>036-040-047-049-050-058-095>099-031200-
WEST-CENTRAL ILLINOIS

CITY           SKY/WX    TMP DP  RH WIND       PRES   REMARKS
QUINCY         MOCLDY    63  60  90 N7        29.93R
GALESBURG*     CLOUDY    58  56  92 N6        29.94S FOG
MACOMB*        CLOUDY    60  59  96 NE3       29.96R FOG
JACKSONVILLE*  MOCLDY    64  61  90 N3        29.92R
PITTSFIELD*    MOCLDY    62  60  92 CALM      29.93R FOG
$$

ILZ028>032-037-038-041>044-048-051>054-059>061-031200-
CENTRAL ILLINOIS

CITY           SKY/WX    TMP DP  RH WIND       PRES   REMARKS
PONTIAC        CLOUDY    60  58  92 NE6       29.95R
BLOOMINGTON    CLOUDY    60  58  93 NE10      29.94R
DECATUR        MOCLDY    61  59  93 N6        29.91R FOG
PEORIA         CLOUDY    63  55  75 N3        29.94R
LACON*         CLOUDY    57  53  86 CALM      29.94R
LINCOLN*       CLOUDY    62  58  88 NE6       29.92S
SPRINGFIELD    MOCLDY    64  60  87 N5        29.91R
TAYLORVILLE    PTCLDY    59  59 100 N3        29.91R FOG
$$

ILZ033-039-045-046-055>057-062-063-031200-
EAST-CENTRAL ILLINOIS

CITY           SKY/WX    TMP DP  RH WIND       PRES   REMARKS
CHAMPAIGN      MOCLDY    64  59  83 NE7       29.91R
DANVILLE*      RAIN      62  58  88 NE3       29.89R
RANTOUL*       CLOUDY    64  60  86 NE8       29.92R
MATTOON        PTCLDY    64  61  90 NE6       29.89R FOG
PARIS*         CLOUDY    65  62  91 NE5       29.90R
$$

ILZ079-100>102-031200-
SOUTHWEST ILLINOIS

CITY           SKY/WX    TMP DP  RH WIND       PRES   REMARKS
ALTON          CLOUDY    64  64 100 CALM      29.91R FOG
BELLEVILLE     CLEAR     66  66  99 VRB2      29.88R
CAHOKIA*       PTCLDY    68  63  84 N5        29.89S
SPARTA*        CLOUDY    67  63  86 NW7       29.90R
$$

ILZ064>066-069>071-074>076-080>082-084>086-088>090-092>094-031200-
SOUTH-CENTRAL ILLINOIS

CITY           SKY/WX    TMP DP  RH WIND       PRES   REMARKS
CARBONDALE     PTCLDY    68  65  90 NW8       29.87S
CAIRO*         CLOUDY    70  69  97 CALM      29.85S FOG
EFFINGHAM*     PTCLDY    66  63  89 NW5       29.90R FOG
MARION         MOCLDY    70  66  88 NW3       29.88S
MT. VERNON     MOCLDY    68  63  83 CALM      29.88R
CENTRALIA*     CLOUDY    67  63  88 N5        29.88R
SALEM*         CLOUDY    68  65  89 CALM      29.88S FOG
METROPOLIS*    LGT RAIN  71  71 100 CALM      29.86R
$$

ILZ067-068-072-073-078-083-087-091-031200-
SOUTHEAST ILLINOIS

CITY           SKY/WX    TMP DP  RH WIND       PRES   REMARKS
LAWRENCEVILLE  CLOUDY    70  67  90 NE5       29.87R FOG
FLORA*         MOCLDY    67  66  95 N5        29.88R FOG
FAIRFIELD*     MOCLDY    68  67  96 N3        29.86R FOG
HARRISBURG*    CLOUDY    70  70 100 NW3       29.88R FOG
ROBINSON*      CLOUDY    68  66  92 N5        29.88R
CARMI*         DRIZZLE   70  65  84 W3        29.86R
$$

ABBREVIATIONS USED IN REMARKS
   TC - TEMPERATURE IN CELSIUS
  WCI - WIND CHILL INDEX
   HX - HEAT INDEX
  VSB - VISIBILITY
$$



USA.gov is the U.S. government's official web portal to all federal, state and local government web resources and services.